Location: Armagh
(54.3500°N, 6.6670°W)
Time: 02:14:12
(UTC+01:00)

ISS - Pass Details

Date: 08 December 2017
Orbit: 402 x 407 km, 51.6° (Epoch: 28 May)

Event Time Altitude Azimuth Distance (km) Brightness Sun altitude
Rises 17:58:54 0° 266° (W) 2,368 1.7 -15.6°
Reaches altitude 10° 18:01:01 10° 262° (W) 1,501 0.4 -15.9°
Maximum altitude 18:04:18 53° 185° (S) 522 -3.2 -16.3°
Enters shadow 18:05:37 31° 123° (ESE) 763 -2.8 -16.5°
